KI7CSN-13 Weather Reports


time (UTC)temp
F
wind
direction
speed
knots
gust
knots
rain 1hr
in
rain 24hr
in
rain mn
in
humidity
%
barometer
mb
20260502161749 71 209 7.0 8.7 0.00 0.00 0.00 20 985.7
20260502161249 70 340 0.0 6.1 0.00 0.00 0.00 20 985.7
20260502160749 71 142 0.0 9.6 0.00 0.00 0.00 20 985.7
20260502160249 71 333 0.0 10.4 0.00 0.00 0.00 20 985.7
20260502152249 66 333 4.3 9.6 0.00 0.00 0.00 22 985.6
20260502151749 65 352 5.2 11.3 0.00 0.00 0.00 22 985.6
20260502151249 65 358 0.0 7.0 0.00 0.00 0.00 23 985.4
20260502150749 65 309 0.0 7.8 0.00 0.00 0.00 23 985.4
20260502150249 64 358 0.0 8.7 0.00 0.00 0.00 23 985.4
20260502130749 58 345 4.3 9.6 0.00 0.00 0.00 27 984.7
20260502130249 58 5 3.5 7.8 0.00 0.00 0.00 27 984.6
20260502123749 57 334 4.3 7.8 0.00 0.00 0.00 28 984.3
20260502123249 57 11 4.3 6.1 0.00 0.00 0.00 28 984.2
20260502122749 57 358 3.5 7.8 0.00 0.00 0.00 28 984.2
20260502122249 57 59 1.7 7.8 0.00 0.00 0.00 28 984.2
20260502121749 57 8 2.6 6.1 0.00 0.00 0.00 28 984.2
20260502121249 56 330 3.5 5.2 0.00 0.00 0.00 29 984.2
20260502120749 56 25 0.9 5.2 0.00 0.00 0.00 29 984.2
20260502120249 56 14 4.3 7.0 0.00 0.00 0.00 28 984.1
20260502115749 56 345 0.0 2.6 0.00 0.00 0.00 29 984.2
20260502115249 57 331 0.0 0.0 0.00 0.00 0.00 29 984.2
20260502114749 57 331 0.0 0.0 0.00 0.00 0.00 29 984.2
20260502114249 56 331 0.0 0.0 0.00 0.00 0.00 29 984.3
20260502113749 55 331 0.0 0.0 0.00 0.00 0.00 29 984.2
20260502113249 55 331 0.0 0.0 0.00 0.00 0.00 29 984.2
20260502112749 55 331 0.0 0.0 0.00 0.00 0.00 29 984.3
20260502112249 55 331 0.0 0.0 0.00 0.00 0.00 29 984.3
20260502111749 55 331 0.0 0.0 0.00 0.00 0.00 29 984.3
20260502111249 55 331 0.0 0.0 0.00 0.00 0.00 29 984.3
20260502110749 54 331 0.0 0.0 0.00 0.00 0.00 29 984.3
20260502110249 56 331 0.0 0.0 0.00 0.00 0.00 29 984.3
20260502105749 57 331 0.0 0.0 0.00 0.00 0.00 29 984.3
20260502105249 57 331 0.0 3.5 0.00 0.00 0.00 28 984.3
20260502104749 56 104 0.0 0.0 0.00 0.00 0.00 29 984.3
20260502104249 56 104 0.0 0.0 0.00 0.00 0.00 29 984.3
20260502103749 57 104 0.0 3.5 0.00 0.00 0.00 28 984.3
20260502103249 57 40 0.0 4.3 0.00 0.00 0.00 27 984.3
20260502102749 57 312 0.0 3.5 0.00 0.00 0.00 28 984.3
20260502102249 57 350 2.6 4.3 0.00 0.00 0.00 29 984.3
20260502101749 57 319 0.0 2.6 0.00 0.00 0.00 28 984.4
20260502101249 57 315 1.7 2.6 0.00 0.00 0.00 28 984.4
20260502100749 57 310 0.0 2.6 0.00 0.00 0.00 28 984.3
20260502100249 56 312 0.0 1.7 0.00 0.00 0.00 29 984.4
20260502091249 56 219 0.0 0.0 0.00 0.00 0.00 29 984.6
20260502090750 57 219 0.0 0.0 0.00 0.00 0.00 29 984.6
20260502090250 57 219 0.0 0.0 0.00 0.00 0.00 29 984.7
20260502071250 63 358 8.7 14.8 0.00 0.00 0.00 21 984.8
20260502070750 63 336 8.7 13.9 0.00 0.00 0.00 22 984.8
20260502070250 62 338 6.1 9.6 0.00 0.00 0.00 21 984.7
20260502065750 63 333 3.5 10.4 0.00 0.00 0.00 22 984.7
20260502065250 63 358 7.0 10.4 0.00 0.00 0.00 22 984.6
20260502064750 63 307 5.2 7.8 0.00 0.00 0.00 22 984.6
20260502064250 63 357 6.1 7.8 0.00 0.00 0.00 22 984.6
20260502063750 63 358 5.2 7.8 0.00 0.00 0.00 21 984.4
20260502063250 64 323 5.2 8.7 0.00 0.00 0.00 22 984.6
20260502062750 64 345 5.2 10.4 0.00 0.00 0.00 22 984.4
20260502062250 64 337 9.6 11.3 0.00 0.00 0.00 20 984.3
20260502061750 64 305 9.6 10.4 0.00 0.00 0.00 21 984.3
20260502061250 64 343 7.0 9.6 0.00 0.00 0.00 21 984.3
20260502060750 64 313 6.1 10.4 0.00 0.00 0.00 21 984.2
20260502060250 64 337 6.1 8.7 0.00 0.00 0.00 20 984.2
20260502055750 64 347 6.1 7.8 0.00 0.00 0.00 21 984.1
20260502055250 64 16 6.1 7.8 0.00 0.00 0.00 20 984.1
20260502054750 64 324 5.2 8.7 0.00 0.00 0.00 20 984.1
20260502054250 65 344 3.5 7.8 0.00 0.00 0.00 20 984.0
20260502053750 66 352 5.2 10.4 0.00 0.00 0.00 20 984.0
20260502053250 66 351 6.1 9.6 0.00 0.00 0.00 20 984.0
20260502052750 66 322 7.8 12.2 0.00 0.00 0.00 20 984.0
20260502052250 66 347 5.2 10.4 0.00 0.00 0.00 20 984.0
20260502051750 66 331 5.2 12.2 0.00 0.00 0.00 20 983.9
20260502051250 66 303 6.1 11.3 0.00 0.00 0.00 20 983.9
20260502050750 66 348 6.1 11.3 0.00 0.00 0.00 20 983.8
20260502050250 67 350 6.1 15.6 0.00 0.00 0.00 18 983.8
20260502045750 67 320 10.4 13.9 0.00 0.00 0.00 18 983.9
20260502045250 67 338 7.8 12.2 0.00 0.00 0.00 18 983.9
20260502044750 67 16 5.2 16.5 0.00 0.00 0.00 18 983.9
20260502044250 67 333 7.8 15.6 0.00 0.00 0.00 18 983.8
20260502043750 67 333 10.4 13.0 0.00 0.00 0.00 18 983.8
20260502043250 67 319 7.8 15.6 0.00 0.00 0.00 18 983.8
20260502042750 67 330 7.8 11.3 0.00 0.00 0.00 18 983.8
20260502042250 67 303 4.3 13.0 0.00 0.00 0.00 19 983.8
20260502041750 67 7 7.0 14.8 0.00 0.00 0.00 19 983.7
20260502041250 66 327 5.2 7.0 0.00 0.00 0.00 20 983.7
20260502040750 65 320 7.0 11.3 0.00 0.00 0.00 20 983.5
20260502040250 65 334 7.0 9.6 0.00 0.00 0.00 20 983.5
20260502035750 66 336 4.3 8.7 0.00 0.00 0.00 20 983.4
20260502035250 66 319 5.2 10.4 0.00 0.00 0.00 20 983.3
20260502034750 67 344 6.1 8.7 0.00 0.00 0.00 20 983.3
20260502034250 67 358 5.2 10.4 0.00 0.00 0.00 20 983.3
20260502033750 66 250 5.2 9.6 0.00 0.00 0.00 20 983.2
20260502033250 66 299 5.2 7.0 0.00 0.00 0.00 20 983.2
20260502032750 67 326 5.2 7.8 0.00 0.00 0.00 20 983.2
20260502032250 67 341 6.1 9.6 0.00 0.00 0.00 20 983.1
20260502031750 67 331 7.0 8.7 0.00 0.00 0.00 20 983.1
20260502031250 67 307 3.5 7.8 0.00 0.00 0.00 20 983.1
20260502030750 67 219 1.7 10.4 0.00 0.00 0.00 20 983.0
20260502030250 68 331 4.3 12.2 0.00 0.00 0.00 20 983.0
20260502025750 68 323 7.8 9.6 0.00 0.00 0.00 20 983.0
20260502025250 68 322 7.8 13.0 0.00 0.00 0.00 20 983.0
20260502024750 68 307 7.8 10.4 0.00 0.00 0.00 20 983.0
20260502024250 68 326 7.8 12.2 0.00 0.00 0.00 20 982.9
20260502023750 68 313 9.6 16.5 0.00 0.00 0.00 20 983.0
20260502023250 68 320 7.8 13.9 0.00 0.00 0.00 20 982.9
20260502022750 68 286 7.0 13.9 0.00 0.00 0.00 20 982.9
20260502022250 69 329 9.6 13.9 0.00 0.00 0.00 20 982.9
20260502021750 69 313 7.8 13.9 0.00 0.00 0.00 20 982.9
20260502021250 69 330 7.8 13.9 0.00 0.00 0.00 20 982.9
20260502020750 69 327 12.2 14.8 0.00 0.00 0.00 20 982.8
20260502020250 69 15 7.0 11.3 0.00 0.00 0.00 20 982.8
20260502015750 70 303 3.5 18.2 0.00 0.00 0.00 19 982.8
20260502015250 70 25 8.7 13.0 0.00 0.00 0.00 19 982.6
20260502014750 70 326 9.6 14.8 0.00 0.00 0.00 18 982.8
20260502014250 71 279 6.1 15.6 0.00 0.00 0.00 18 982.6
20260502013750 71 307 8.7 19.1 0.00 0.00 0.00 18 982.6
20260502013250 72 268 5.2 20.9 0.00 0.00 0.00 18 982.6
20260502012750 72 324 6.1 20.0 0.00 0.00 0.00 18 982.5
20260502012250 72 310 9.6 20.0 0.00 0.00 0.00 18 982.6
20260502011750 73 313 10.4 20.0 0.00 0.00 0.00 17 982.5
20260502011250 73 293 2.6 17.4 0.00 0.00 0.00 16 982.5
20260502010750 73 358 7.8 16.5 0.00 0.00 0.00 17 982.5
20260502010250 73 324 12.2 22.6 0.00 0.00 0.00 16 982.5
20260502005750 73 310 12.2 17.4 0.00 0.00 0.00 17 982.5
20260502005251 73 319 13.9 21.7 0.00 0.00 0.00 18 982.6
20260502004750 74 194 3.5 20.9 0.00 0.00 0.00 18 982.4
20260502004250 74 247 9.6 17.4 0.00 0.00 0.00 18 982.4
20260502003751 74 247 6.1 20.0 0.00 0.00 0.00 17 982.3
20260502003251 74 307 12.2 19.1 0.00 0.00 0.00 16 982.4
20260502002750 74 333 15.6 21.7 0.00 0.00 0.00 16 982.4
20260502002251 74 15 6.1 17.4 0.00 0.00 0.00 18 982.4
20260502001751 75 320 7.8 22.6 0.00 0.00 0.00 18 982.3
20260502001251 75 338 12.2 26.1 0.00 0.00 0.00 18 982.3
20260502000751 75 341 12.2 22.6 0.00 0.00 0.00 18 982.3
20260502000250 75 315 10.4 20.9 0.00 0.00 0.00 18 982.3
20260501235751 75 331 9.6 19.1 0.00 0.00 0.00 16 982.3
20260501235251 76 291 10.4 21.7 0.00 0.00 0.00 16 982.4
20260501234751 76 344 12.2 18.2 0.00 0.00 0.00 16 982.3
20260501234251 75 333 13.9 24.3 0.00 0.00 0.00 16 982.3
20260501233751 77 307 8.7 21.7 0.00 0.00 0.00 16 982.2
20260501233251 77 345 7.8 16.5 0.00 0.00 0.00 17 982.1
20260501232751 75 306 13.9 23.5 0.00 0.00 0.00 17 982.2
20260501232251 78 9 6.1 15.6 0.00 0.00 0.00 16 982.1
20260501231751 76 262 9.6 17.4 0.00 0.00 0.00 17 982.0
20260501231251 78 272 6.1 13.0 0.00 0.00 0.00 16 982.1
20260501230751 76 324 4.3 14.8 0.00 0.00 0.00 18 982.0
20260501230251 79 264 4.3 11.3 0.00 0.00 0.00 16 982.0
20260501225751 77 312 10.4 12.2 0.00 0.00 0.00 16 982.1
20260501225251 78 246 2.6 14.8 0.00 0.00 0.00 12 982.1
20260501224751 77 234 5.2 18.2 0.00 0.00 0.00 13 982.0
20260501224251 78 302 3.5 10.4 0.00 0.00 0.00 13 982.0
20260501223751 80 262 7.0 12.2 0.00 0.00 0.00 12 982.1
20260501223251 80 258 5.2 13.0 0.00 0.00 0.00 12 982.1
20260501222751 79 265 6.1 8.7 0.00 0.00 0.00 13 982.1
20260501222251 79 282 4.3 17.4 0.00 0.00 0.00 13 982.2
20260501221751 78 300 5.2 15.6 0.00 0.00 0.00 13 982.2
20260501221251 78 323 7.8 19.1 0.00 0.00 0.00 14 982.2
20260501220751 78 234 6.1 15.6 0.00 0.00 0.00 13 982.2
20260501220251 79 337 7.8 8.7 0.00 0.00 0.00 13 982.2
20260501215751 79 14 5.2 20.0 0.00 0.00 0.00 13 982.4
20260501215251 77 330 17.4 19.1 0.00 0.00 0.00 14 982.4
20260501214751 80 29 4.3 13.0 0.00 0.00 0.00 12 982.4
20260501214251 78 278 2.6 15.6 0.00 0.00 0.00 13 982.5
20260501213751 77 326 7.8 18.2 0.00 0.00 0.00 14 982.5
20260501213251 77 40 6.1 16.5 0.00 0.00 0.00 17 982.8
20260501212751 78 331 16.5 17.4 0.00 0.00 0.00 17 982.8
20260501212251 76 326 7.0 24.3 0.00 0.00 0.00 17 982.8
20260501211751 77 21 7.0 18.2 0.00 0.00 0.00 17 982.9
20260501211251 77 331 6.1 15.6 0.00 0.00 0.00 18 982.8
20260501210751 79 40 5.2 20.9 0.00 0.00 0.00 16 982.9
20260501210251 77 288 6.1 19.1 0.00 0.00 0.00 17 982.9
20260501205751 79 322 16.5 17.4 0.00 0.00 0.00 16 983.0
20260501205251 78 310 3.5 10.4 0.00 0.00 0.00 16 982.9
20260501204751 78 278 5.2 12.2 0.00 0.00 0.00 17 982.9
20260501204251 77 253 3.5 13.0 0.00 0.00 0.00 18 982.9
20260501203751 78 330 9.6 19.1 0.00 0.00 0.00 17 983.0
20260501203251 80 282 4.3 20.0 0.00 0.00 0.00 18 983.0
20260501202751 78 341 3.5 19.1 0.00 0.00 0.00 18 982.9
20260501202251 77 323 5.2 14.8 0.00 0.00 0.00 18 982.9
20260501201751 79 270 7.0 17.4 0.00 0.00 0.00 17 983.0
20260501201251 77 233 7.0 16.5 0.00 0.00 0.00 18 982.9
20260501200751 79 261 3.5 15.6 0.00 0.00 0.00 18 982.8
20260501200251 78 30 4.3 8.7 0.00 0.00 0.00 17 982.9
20260501195751 78 267 3.5 18.2 0.00 0.00 0.00 18 982.9
20260501195251 78 324 8.7 8.7 0.00 0.00 0.00 18 982.8
20260501194751 78 220 3.5 13.0 0.00 0.00 0.00 18 982.8
20260501194251 78 191 2.6 13.0 0.00 0.00 0.00 18 982.9
20260501193751 78 327 4.3 10.4 0.00 0.00 0.00 18 982.9
20260501193251 77 284 4.3 12.2 0.00 0.00 0.00 18 982.8
20260501192751 78 281 5.2 19.1 0.00 0.00 0.00 18 982.9
20260501192251 77 334 14.8 18.2 0.00 0.00 0.00 18 982.9
20260501191751 74 247 7.0 15.6 0.00 0.00 0.00 20 983.0
20260501191251 75 262 11.3 13.0 0.00 0.00 0.00 18 983.0
20260501190751 76 247 5.2 14.8 0.00 0.00 0.00 18 983.0
20260501190251 74 236 3.5 8.7 0.00 0.00 0.00 18 983.0
20260501185751 75 303 3.5 14.8 0.00 0.00 0.00 19 983.1
20260501185251 73 4 5.2 12.2 0.00 0.00 0.00 19 983.2
20260501184751 75 331 9.6 16.5 0.00 0.00 0.00 18 983.1
20260501184251 74 358 4.3 8.7 0.00 0.00 0.00 18 983.2
20260501183751 75 312 5.2 8.7 0.00 0.00 0.00 18 983.2
20260501183251 77 303 2.6 11.3 0.00 0.00 0.00 17 983.3
20260501182751 74 29 1.7 12.2 0.00 0.00 0.00 19 983.2
20260501182251 75 303 9.6 14.8 0.00 0.00 0.00 18 983.3
20260501181751 76 322 8.7 11.3 0.00 0.00 0.00 18 983.3
20260501181251 75 223 0.0 4.3 0.00 0.00 0.00 18 983.4
20260501180751 76 21 1.7 7.0 0.00 0.00 0.00 18 983.4
20260501180251 75 36 5.2 7.8 0.00 0.00 0.00 18 983.4
20260501175751 74 149 3.5 7.8 0.00 0.00 0.00 18 983.4
20260501175251 74 358 6.1 10.4 0.00 0.00 0.00 19 983.5
20260501174751 74 25 8.7 13.0 0.00 0.00 0.00 18 983.5
20260501174251 74 4 6.1 14.8 0.00 0.00 0.00 18 983.4
20260501173751 74 326 10.4 13.0 0.00 0.00 0.00 18 983.4
20260501173251 73 358 0.0 7.8 0.00 0.00 0.00 20 983.3
20260501172751 74 341 5.2 6.1 0.00 0.00 0.00 19 983.3
20260501172251 73 268 0.0 9.6 0.00 0.00 0.00 20 983.4
20260501171751 73 300 6.1 11.3 0.00 0.00 0.00 20 983.4
20260501171251 74 331 4.3 6.1 0.00 0.00 0.00 20 983.4
20260501170751 72 47 1.7 8.7 0.00 0.00 0.00 17 983.4
20260501170251 71 293 4.3 11.3 0.00 0.00 0.00 17 983.3
20260501165751 72 250 1.7 7.0 0.00 0.00 0.00 17 983.4
20260501165251 73 40 1.7 7.0 0.00 0.00 0.00 17 983.3
20260501164751 71 25 3.5 17.4 0.00 0.00 0.00 18 983.4
20260501164251 71 272 7.8 7.8 0.00 0.00 0.00 18 983.2
20260501163751 70 215 3.5 6.1 0.00 0.00 0.00 18 983.3
20260501163251 71 15 3.5 10.4 0.00 0.00 0.00 18 983.3
20260501162751 70 248 2.6 8.7 0.00 0.00 0.00 19 983.2
20260501162251 70 329 4.3 8.7 0.00 0.00 0.00 20 983.2